x

8454000 - Providence, Ri (foxr1) Weather Station

3:12 - Tue 9th Feb 2016 All times are EST. -5 hours from GMT.

  • Wind
    5mph, 9mph gusts
  • Sea Temp 38°f
  • Air Temp 30°f
  • Sea Pressure 1000.7mb
  • 8454000 - Providence, Ri
  • 8454000 - Providence, Ri

More Historic Weather Station data

Upgrade to MSW Pro to gain access to the past 30 days of data for over 8000 Wavebouys and Weather Stations around the globe.

Join Pro

Comparision Forecast

View Surf forecast
   
mar. 02/09 3:12 5 9 mph 1000.7mb 38f 30f
3:06 6 10 mph 1000.6mb 38f 30f
3:00 5 10 mph 1000.6mb 38f 30f
2:54 9 11 mph 1000.6mb 38f 30f
2:48 7 10 mph 1000.6mb 38f 30f
2:42 5 9 mph 1000.7mb 38f 30f
2:36 5 8 mph 1000.6mb 38f 30f
2:30 7 9 mph 1000.6mb 38f 30f
2:24 7 10 mph 1000.6mb 38f 30f
2:18 7 10 mph 1000.7mb 38f 30f
2:12 7 11 mph 1000.7mb 38f 29f
2:06 8 9 mph 1000.7mb 38f 29f
2:00 5 9 mph 1000.8mb 38f 29f
1:54 6 11 mph 1000.9mb 38f 29f
1:48 9 11 mph 1000.8mb 38f 29f
1:42 9 11 mph 1000.8mb 38f 29f
1:36 7 10 mph 1001mb 38f 29f
1:30 6 10 mph 1001mb 38f 29f
1:24 7 13 mph 1000.9mb 38f 29f
1:18 7 14 mph 1000.9mb 38f 29f
1:12 10 13 mph 1000.9mb 38f 29f
1:06 9 13 mph 1000.9mb 38f 29f
1:00 8 10 mph 1001.1mb 38f 29f
12:54 7 10 mph 1001.3mb 38f 29f
12:48 6 13 mph 1001.4mb 38f 29f
12:42 7 11 mph 1001.2mb 38f 29f
12:36 9 13 mph 1001.2mb 38f 29f
12:30 9 13 mph 1001.4mb 38f 29f
12:24 7 11 mph 1001.7mb 38f 29f
12:18 8 14 mph 1001.8mb 39f 29f
12:12 8 11 mph 1001.8mb 39f 29f
12:06 9 13 mph 1001.9mb 39f 28f
12:00 8 13 mph 1002.2mb 39f 28f
11:54 8 11 mph 1002.3mb 39f 29f
11:48 8 11 mph 1002.4mb 39f 28f
11:42 7 13 mph 1002.5mb 39f 28f
11:36 9 11 mph 1002.6mb 39f 28f
11:30 7 11 mph 1002.8mb 39f 28f
11:24 10 14 mph 1002.8mb 39f 27f
11:18 8 14 mph 1002.8mb 39f 27f
11:12 13 15 mph 1002.7mb 39f 27f
11:06 11 15 mph 1002.7mb 39f 26f
11:00 13 15 mph 1003mb 39f 26f
10:54 7 11 mph 1003.3mb 39f 26f
10:48 7 15 mph 1003.3mb 39f 26f
10:42 11 15 mph 1003.1mb 39f 26f
10:36 8 14 mph 1003.3mb 39f 26f
10:30 11 15 mph 1003.6mb 39f 26f
10:24 8 13 mph 1003.7mb 39f 26f
10:18 6 13 mph 1003.9mb 39f 26f
10:12 11 13 mph 1004.1mb 39f 25f
10:06 7 11 mph 1004.3mb 39f 25f
10:00 9 11 mph 1004.3mb 39f 25f
9:54 7 14 mph 1004.5mb 39f 24f
9:48 7 11 mph 1004.7mb 39f 24f
9:42 9 11 mph 1004.8mb 39f 24f
9:36 10 13 mph 1005mb 39f 24f
9:30 10 14 mph 1005mb 39f 23f
9:24 10 14 mph 1004.8mb 39f 23f
9:18 8 13 mph 1004.7mb 39f 23f
9:12 8 10 mph 1004.7mb 39f 23f
9:06 9 13 mph 1005mb 39f 23f
9:00 9 11 mph 1005mb 39f 22f
8:54 8 11 mph 1005mb 39f 22f
8:48 9 13 mph 1004.9mb 39f 22f
8:42 7 10 mph 1005mb 39f 22f
8:36 8 11 mph 1005mb 39f 22f
8:30 8 10 mph 1005.2mb 39f 22f
8:24 7 11 mph 1005.2mb 39f 22f
8:18 10 13 mph 1005.3mb 39f 22f
8:12 10 11 mph 1005.5mb 39f 22f
8:06 11 13 mph 1005.5mb 39f 22f
8:00 10 11 mph 1005.6mb 39f 22f
7:54 7 11 mph 1005.7mb 39f 22f
7:48 8 10 mph 1005.9mb 39f 22f
7:42 7 9 mph 1005.8mb 39f 22f
7:36 7 10 mph 1005.9mb 39f 22f
7:30 6 8 mph 1005.9mb 39f 22f
7:24 6 8 mph 1006mb 39f 22f
7:18 5 8 mph 1006mb 39f 21f
7:12 5 6 mph 1006.1mb 39f 21f
7:06 1 3 mph 1006mb 39f 21f
7:00 2 7 mph 1005.8mb 39f 21f
6:54 6 9 mph 1005.5mb 39f 21f
6:48 6 9 mph 1005.3mb 39f 21f
6:42 6 10 mph 1005.2mb 39f 21f
6:36 7 10 mph 1005mb 39f 21f
6:30 6 10 mph 1004.9mb 39f 21f
6:24 8 15 mph 1004.5mb 39f 21f
6:18 11 15 mph 1004.1mb 39f 21f
6:12 11 17 mph 1003.9mb 39f 21f
6:06 13 22 mph 1003.6mb 39f 21f
6:00 15 21 mph 1003.2mb 39f 21f
5:54 13 17 mph 1003.2mb 39f 22f
5:48 13 21 mph 1003.8mb 39f 22f
5:42 15 18 mph 1004.1mb 39f 21f
5:36 13 17 mph 1004.4mb 39f 21f
5:30 10 14 mph 1004.8mb 39f 21f
5:24 10 15 mph 1005.1mb 39f 21f
5:18 9 14 mph 1005.3mb 39f 21f
5:12 9 14 mph 1005.5mb 39f 22f
5:06 9 11 mph 1005.7mb 39f 21f
5:00 8 13 mph 1005.9mb 39f 21f
4:54 6 10 mph 1006.1mb 39f 21f
4:48  -  mph 1006.2mb 39f 21f
4:42  -  mph 1006.2mb 39f 21f
4:36  -  mph 1006mb 39f 21f
4:30 7 11 mph 1006mb 39f 21f
4:24 7 13 mph 1005.9mb 39f 21f
4:18 9 13 mph 1005.8mb 38f 21f
4:12 7 14 mph 1005.7mb 37f 21f
4:06 11 14 mph 1005.5mb 37f 22f
4:00 6 13 mph 1005.5mb 37f 22f
3:54 11 14 mph 1005.5mb 37f 22f
3:48 9 14 mph 1005.6mb 37f 22f
3:42 8 13 mph 1005.7mb 37f 22f
3:36 9 13 mph 1005.7mb 37f 22f
3:30 9 14 mph 1005.7mb 37f 22f
3:24 10 16 mph 1005.7mb 37f 22f
3:18 10 14 mph 1005.9mb 37f 22f
3:12 8 11 mph 1006.1mb 37f 22f
3:06 7 14 mph 1006.1mb 37f 22f
3:00 10 16 mph 1006mb 37f 22f
2:54 11 15 mph 1006.3mb 37f 22f
2:48 8 15 mph 1006.5mb 37f 22f
2:42 13 14 mph 1006.5mb 37f 22f
2:36 9 16 mph 1006.5mb 37f 22f
2:30 11 14 mph 1006.6mb 37f 22f
2:24 8 11 mph 1006.9mb 37f 21f
2:18 10 14 mph 1006.9mb 37f 21f
2:12 9 14 mph 1006.9mb 37f 22f
2:06 10 14 mph 1007mb 37f 22f
2:00 10 15 mph 1007mb 37f 21f
1:54 10 13 mph 1007.1mb 37f 22f
1:48 8 13 mph 1007mb 37f 22f
1:42 8 14 mph 1007.1mb 37f 21f
1:36 11 17 mph 1007mb 37f 21f
1:30 8 14 mph 1007mb 37f 22f
1:24 8 13 mph 1006.9mb 37f 22f
1:18 11 15 mph 1006.9mb 37f 21f
1:12 9 14 mph 1006.9mb 37f 22f
1:06 9 15 mph 1006.8mb 37f 22f
1:00 9 15 mph 1006.9mb 37f 22f
12:54 7 11 mph 1006.9mb 37f 22f
12:48 10 14 mph 1007mb 37f 22f
12:42 10 14 mph 1006.9mb 37f 22f
12:36 11 15 mph 1007mb 37f 22f
12:30 9 17 mph 1007mb 37f 22f
12:24 11 15 mph 1007mb 37f 22f
12:18 10 17 mph 1007.1mb 37f 22f
12:12 7 14 mph 1007.1mb 37f 22f
12:06 11 15 mph 1007.1mb 37f 22f
12:00 9 18 mph 1007.2mb 37f 22f
lun. 02/08 11:54 13 16 mph 1007.2mb 37f 22f
11:48 13 16 mph 1007.2mb 38f 22f
11:42 10 18 mph 1007.3mb 38f 22f
11:36 11 18 mph 1007.3mb 38f 22f
11:30 13 18 mph 1007.3mb 38f 22f
11:24 9 15 mph 1007.3mb 38f 22f
11:18 13 18 mph 1007.3mb 38f 22f
11:12 10 18 mph 1007.5mb 38f 22f
11:06 9 15 mph 1007.6mb 38f 22f
11:00 10 17 mph 1007.6mb 38f 22f
10:54 8 16 mph 1007.6mb 38f 22f
10:48 13 16 mph 1007.8mb 38f 22f
10:42 11 20 mph 1007.8mb 38f 22f
10:36 10 18 mph 1007.9mb 38f 22f
10:30 14 20 mph 1007.8mb 38f 22f
10:24 13 21 mph 1007.9mb 38f 22f
10:18 10 16 mph 1007.9mb 38f 22f
10:12 11 16 mph 1007.9mb 38f 22f
10:06 13 17 mph 1007.8mb 38f 22f
10:00 16 20 mph 1007.8mb 39f 22f
9:54 10 17 mph 1007.8mb 39f 22f
9:48 11 18 mph 1007.7mb 39f 22f
9:42 11 20 mph 1007.7mb 39f 22f
9:36 15 24 mph 1007.6mb 39f 21f
9:30 16 21 mph 1007.5mb 39f 22f
9:24 14 18 mph 1007.5mb 39f 22f
9:18 16 22 mph 1007.5mb 39f 22f
9:12 10 16 mph 1007.7mb 39f 22f
9:06 11 21 mph 1007.8mb 39f 22f
9:00 14 17 mph 1007.9mb 39f 22f
8:54 11 24 mph 1007.9mb 39f 22f
8:48  -  mph 1007.8mb - -
8:42  -  mph 1007.8mb 39f 22f
8:36  -  mph 1007.7mb 39f 22f
8:30  -  mph 1007.7mb 39f 22f
8:24  -  mph 1007.6mb 39f 22f
8:18  -  mph 1007.4mb 39f 22f
8:12  -  mph 1007.3mb 39f 22f
8:06  -  mph 1007.4mb 39f 22f
8:00 16 21 mph 1007.3mb 39f 22f
7:54 17 24 mph 1007.2mb 39f 22f
7:48 14 24 mph 1007.3mb - -
7:42 16 24 mph 1007.3mb 39f 22f
7:36 14 20 mph 1007.4mb 39f 22f
7:30 14 24 mph 1007.4mb 39f 22f
7:24 17 22 mph 1007.3mb 39f 22f
7:18 10 20 mph 1007.4mb 39f 22f
7:12 15 22 mph 1007.3mb 39f 22f
7:06 17 23 mph 1007.1mb 39f 22f
7:00 15 22 mph 1007.2mb 39f 22f
6:54 8 17 mph 1007.2mb 39f 22f
6:48 13 18 mph 1007.1mb - -
6:42 14 17 mph 1007.1mb 39f -
6:36 13 20 mph 1007.1mb 39f -
6:30 13 20 mph 1007mb 39f 22f
6:24 14 17 mph 1006.8mb 40f 22f
6:18 15 24 mph 1006.8mb 40f 22f
6:12 14 20 mph 1006.8mb 40f 22f
6:06 13 18 mph 1006.7mb 40f 22f
6:00 13 21 mph 1006.6mb 40f 22f
5:54 10 21 mph 1006.4mb 40f 22f
5:48 17 24 mph 1006.3mb 40f 22f
5:42 13 21 mph 1006.4mb 40f 22f
5:36 15 23 mph 1006.3mb 40f 22f
5:30 14 22 mph 1006.2mb 40f 22f
5:24 14 22 mph 1006.1mb 40f 22f
5:18 17 23 mph 1006mb - -
5:12 10 21 mph 1005.9mb 40f 22f
5:06 17 24 mph 1005.8mb 40f 22f
5:00 11 25 mph 1005.6mb 40f 22f
4:54 16 25 mph 1005.4mb 40f 22f
4:48  -  mph 1005.3mb 40f 22f
4:42  -  mph 1005.3mb 40f 22f
4:36  -  mph 1005.3mb 40f 22f
4:30 11 22 mph 1005.3mb 39f 22f
4:24 16 23 mph 1005.2mb 39f 22f
4:18 15 24 mph 1005.1mb 39f 22f
4:12 16 24 mph 1004.9mb 39f 22f
4:06 15 28 mph 1004.9mb 38f 22f
4:00 18 29 mph 1004.8mb 38f 22f
3:54 17 31 mph 1004.6mb 38f 22f
3:48 17 25 mph 1004.6mb 38f 22f
3:42 16 24 mph 1004.5mb 37f 22f
3:36 14 28 mph 1004.5mb 37f 22f
3:30 16 25 mph 1004.4mb 37f 22f
3:24 21 25 mph 1004.2mb 37f 22f
3:18 18 28 mph 1004.1mb 37f 22f
3:12 20 26 mph 1004.1mb 37f 22f
3:06 20 28 mph 1004.1mb 37f 21f
3:00 16 26 mph 1004mb 37f 22f
2:54 14 25 mph 1004mb 37f 22f
2:48 18 25 mph 1004.1mb 37f 22f
2:42 17 31 mph 1004mb 37f 22f
2:36 15 25 mph 1004.1mb 38f 21f
2:30 21 28 mph 1004mb 38f 21f
2:24 17 28 mph 1004.1mb 38f 21f
2:18 16 25 mph 1004.1mb 38f 21f
2:12 15 22 mph 1004.1mb 38f 22f
2:06 13 25 mph 1004.1mb 38f 21f
2:00 17 26 mph 1004mb 38f 21f
1:54 16 24 mph 1004mb 38f 21f
1:48 21 25 mph 1004mb 38f 21f
1:42 17 25 mph 1004mb 38f 21f
1:36 21 28 mph 1004.2mb 38f 21f
1:30 17 34 mph 1004.1mb 38f 21f
1:24 20 29 mph 1004mb 38f 20f
1:18 21 29 mph 1004.1mb 38f 20f
1:12 20 29 mph 1004.4mb 38f 20f
1:06 18 29 mph 1004.4mb 38f 20f
1:00 18 30 mph 1004.5mb 38f 20f
12:54 20 33 mph 1004.5mb 38f 20f
12:48 22 31 mph 1004.8mb 38f 20f
12:42 16 28 mph 1005mb 38f 20f
12:36 20 29 mph 1005.2mb 38f 20f
12:30 15 26 mph 1005.3mb 38f 21f
12:24 18 28 mph 1005.4mb 38f 21f
12:18 11 23 mph 1005.6mb 38f 21f
12:12 16 26 mph 1005.7mb 38f 21f
12:06 20 29 mph 1005.7mb 38f 20f
12:00 20 28 mph 1005.8mb 38f 20f
11:54 16 23 mph 1005.9mb 38f 21f
11:48 17 25 mph 1006.1mb 38f 21f
11:42 14 25 mph 1006.2mb 38f 21f
11:36 15 22 mph 1006.4mb 38f 21f
11:30 16 25 mph 1006.6mb 38f 21f
11:24 15 22 mph 1006.8mb 38f 21f
11:18 11 23 mph 1006.9mb 38f 21f
11:12 17 25 mph 1007mb 39f 21f
11:06 20 30 mph 1007.2mb 39f 21f
11:00 23 31 mph 1007.3mb 39f 21f
10:54 14 29 mph 1007.5mb 39f 22f
10:48 25 33 mph 1007.5mb 39f 22f
10:42 23 37 mph 1007.7mb 39f 22f
10:36 21 28 mph 1008mb 39f 22f
10:30 20 30 mph 1008.1mb 39f 22f
10:24 20 30 mph 1008.3mb 39f 22f
10:18 17 29 mph 1008.4mb 39f 22f
10:12 20 28 mph 1008.4mb 39f 23f
10:06 16 25 mph 1008.3mb 39f 23f
10:00 18 33 mph 1008.2mb 39f 23f
9:54 21 32 mph 1008.1mb 39f 23f
9:48 22 29 mph 1008mb 39f 23f
9:42 18 26 mph 1008.1mb 39f 24f
9:36 17 29 mph 1008.1mb 39f 24f
9:30 20 24 mph 1008mb 39f 24f
9:24 18 30 mph 1008mb 39f 24f
9:18 17 25 mph - - -
9:12 15 24 mph 1007.9mb 39f 25f
9:06 16 25 mph 1008mb 39f 25f
9:00 16 23 mph 1008mb 39f 26f
8:54 17 26 mph 1008mb 39f 26f
8:48 20 26 mph 1007.8mb 39f 28f
8:42 15 29 mph 1007.8mb 39f 28f
8:36 20 30 mph 1007.8mb 40f 28f
8:30 17 28 mph 1007.8mb 40f 28f
8:24 17 29 mph 1007.8mb 40f 28f
8:18 16 25 mph - - -
8:12 16 26 mph 1007.8mb 39f 29f
8:06 21 26 mph 1007.9mb 39f 29f
8:00 15 25 mph 1008.1mb 39f 30f
7:54 23 30 mph 1008.1mb 39f 30f
7:48 22 29 mph 1008.1mb 39f 31f
7:42 22 29 mph 1008.2mb 39f 31f
7:36 20 28 mph 1008.3mb 39f 31f
7:30 21 26 mph 1008.2mb 39f 32f
7:24 20 31 mph 1008.1mb 39f 32f
7:18 20 31 mph 1008.1mb 39f 33f
7:12 23 33 mph 1008.2mb 39f 33f
7:06 22 32 mph 1008.2mb 39f 33f
7:00 22 30 mph 1008mb 39f 33f
6:54 21 30 mph 1008mb 39f 33f
6:48 22 32 mph 1008mb 39f 33f
6:42 26 38 mph 1008mb 38f 34f
6:36 24 29 mph 1008mb 38f 34f
6:30 23 34 mph 1008mb 39f 34f
6:24 22 32 mph 1008mb 40f 34f
6:18 24 30 mph 1008.1mb 40f 34f
6:12 25 39 mph 1008.2mb 40f 34f
6:06 22 32 mph 1008.1mb 40f 34f
6:00 25 33 mph 1008mb 40f 34f
5:54 22 41 mph 1008.1mb 40f 34f
5:48 29 40 mph 1008.1mb 39f 35f
5:42 28 37 mph 1008.1mb 39f 35f
5:36 23 38 mph 1008.3mb 39f 35f
5:30 26 37 mph 1008.3mb 39f 35f
5:18 26 37 mph 1008mb 39f 35f
5:12 28 43 mph 1007.8mb 39f 35f
5:06 25 40 mph 1007.8mb 39f 35f
5:00 25 37 mph 1007.7mb 39f 35f
4:54 29 39 mph 1007.6mb 39f 35f
4:48  -  mph 1007.7mb 39f 36f
4:42  -  mph 1007.5mb 39f 36f
4:36  -  mph 1007.6mb 39f 36f
4:30 25 33 mph 1007.6mb 39f 36f
4:24 24 36 mph 1007.8mb 39f 36f
4:18 30 39 mph 1008mb 39f 36f
4:12 24 33 mph 1008.1mb 39f 36f
4:06 22 33 mph 1008.2mb 39f 37f
4:00 23 29 mph 1008.3mb 39f 37f
3:54 23 28 mph 1008.4mb 39f 37f
3:48 24 36 mph 1008.5mb 40f 37f
3:42 22 33 mph 1008.6mb 39f 37f
3:36 21 40 mph 1008.8mb 39f 37f
3:30 28 37 mph 1008.7mb 39f 37f
3:24 26 38 mph 1008.9mb 38f 38f
3:18 21 33 mph 1008.9mb 38f 38f
3:12 26 37 mph 1008.7mb 38f 38f
3:06 22 30 mph 1008.7mb 38f 38f
3:00 18 28 mph 1008.9mb 38f 38f
2:54 20 28 mph 1009.1mb 38f 38f
2:48 21 30 mph 1009.4mb 38f 38f
2:42 25 32 mph 1009.7mb 38f 38f
2:36 17 29 mph 1010mb 38f 38f
2:30 20 31 mph 1010.1mb 38f 38f
2:24 22 26 mph 1010.3mb 38f 38f
2:18 21 28 mph 1010.4mb 38f 38f
2:12 20 26 mph 1010.5mb 38f 38f
2:06 20 29 mph 1010.6mb 38f 38f
2:00 20 28 mph 1010.7mb 38f 38f
1:54 17 24 mph 1010.9mb 38f 38f
1:48 17 22 mph 1011mb 38f 38f
1:42 16 22 mph 1011.1mb 38f 38f
1:36 18 24 mph 1011.1mb 38f 38f
1:30 17 22 mph 1011.2mb 38f 38f
1:24 15 21 mph 1011.3mb 38f 38f
1:18 15 20 mph 1011.4mb 38f 38f
1:12 15 21 mph 1011.5mb 38f 38f
1:06 14 17 mph 1011.7mb 38f 38f
1:00 15 20 mph 1011.9mb 38f 38f
12:54 13 16 mph 1012.1mb 38f 37f
12:48 13 16 mph 1012.3mb 38f 37f
12:42 11 15 mph 1012.4mb 38f 37f
12:36 11 14 mph 1012.6mb 38f 37f
12:30 11 15 mph 1012.8mb 38f 37f
12:24 10 15 mph 1013mb 38f 37f
12:18 10 13 mph 1013.2mb 38f 37f
12:12 11 14 mph 1013.5mb 38f 37f
12:06 11 14 mph 1013.9mb 38f 37f
12:00 9 14 mph 1014.1mb 38f 37f
dim. 02/07 11:54 9 15 mph 1014.3mb 38f 37f
11:48 10 14 mph 1014.5mb 38f 37f
11:42 8 11 mph 1014.6mb 38f 36f
11:36 9 11 mph 1014.7mb 38f 36f
11:30 8 10 mph 1015mb 38f 36f
11:24 8 10 mph 1015.1mb 38f 36f
11:18 8 10 mph 1015.1mb 38f 36f
11:12 8 11 mph 1015mb 38f 36f
11:06 9 11 mph 1015.1mb 38f 36f
11:00 9 11 mph 1015.2mb 38f 36f
10:54 8 11 mph 1015.2mb 38f 35f
10:48 9 10 mph 1015.3mb 38f 35f
10:42 9 11 mph 1015.4mb 38f 35f
10:36 8 11 mph 1015.5mb 38f 35f
10:30 9 11 mph 1015.6mb 38f 35f
10:24 9 13 mph 1015.7mb 38f 35f
10:18 10 13 mph 1015.6mb 38f 35f
10:12 9 13 mph 1015.8mb 38f 35f
10:06 10 14 mph 1015.8mb 38f 36f
10:00 10 14 mph 1016mb 38f 36f
9:54 10 14 mph 1016mb 38f 36f
9:48 9 13 mph 1016.2mb 38f 37f
9:42 9 11 mph 1016.3mb 38f 37f
9:36 10 13 mph 1016.3mb 38f 37f
9:30 9 15 mph 1016.5mb 38f 38f
9:24 10 15 mph 1016.4mb 38f 37f
9:18 9 10 mph 1016.3mb 38f 37f
9:12 8 11 mph 1016.3mb 38f 37f
9:06 9 13 mph 1016.3mb 38f 37f
9:00  -  mph 1016.3mb 38f 37f
8:54  -  mph 1016.4mb 38f 37f
8:48  -  mph 1016.6mb 38f 37f
8:42  -  mph 1017mb 39f 37f
8:36  -  mph 1017.3mb 39f 37f
8:30 7 11 mph 1017.5mb 39f 36f
8:24 6 9 mph 1017.5mb 39f 36f
8:18  -  mph 1017.5mb 39f 36f
8:12  -  mph 1017.6mb 39f 36f
8:06  -  mph 1017.6mb 39f 37f
8:00  -  mph 1017.8mb 39f 37f
7:54  -  mph 1017.8mb 39f 37f
7:48  -  mph 1017.9mb 39f 37f
7:42  -  mph 1018mb 39f 37f
7:36  -  mph 1018mb 39f 37f
7:30 8 10 mph 1018.2mb 39f 37f
7:24 8 10 mph 1018.2mb 39f 37f
7:18 8 13 mph 1018.1mb 39f 38f
7:12 9 13 mph 1017.9mb 39f 38f
7:06 10 13 mph 1017.9mb 39f 38f
7:00 9 14 mph 1017.8mb 39f 38f
6:54 10 14 mph 1018mb 39f 38f
6:48 11 14 mph 1018.1mb 39f -
6:42 9 13 mph 1018mb 39f -
6:36 9 13 mph 1018mb 39f -
6:30 9 13 mph 1018.1mb 40f 39f
6:24 8 11 mph 1018mb 40f 39f
6:18  -  mph 1018mb 40f 39f
6:12  -  mph 1018.1mb 40f 39f
6:06  -  mph 1018mb 39f 39f
6:00 7 9 mph 1018.2mb 39f 40f
5:54 7 9 mph 1018.2mb 39f 40f
5:48 8 9 mph 1018.3mb 39f 40f
5:42 5 6 mph 1018.1mb 39f 40f
5:36 5
mph
1018mb 39f 40f
5:30 2 3 mph 1018.1mb 39f 40f
5:24 1 2 mph 1018.2mb 39f 40f
5:18 1 2 mph 1018.2mb 39f 39f
5:12 1 2 mph 1018.3mb 39f 40f
5:06 2
mph
1018.4mb 39f 39f
5:00 2 3 mph 1018.3mb 39f 40f
4:54 2 3 mph 1018.2mb 39f 40f
4:48  -  mph 1018mb 39f 40f
4:42  -  mph 1017.8mb 39f 40f
4:36  -  mph 1017.8mb 39f 40f
4:30 2 3 mph 1017.8mb 39f 41f
4:24 3 5 mph 1017.8mb 39f 41f
4:18 3 5 mph 1017.9mb 39f 41f
4:12 5
mph
1017.9mb 39f 41f
4:06 3 6 mph 1017.9mb 39f 41f
4:00 5 6 mph 1017.9mb 39f 41f
3:54 5
mph
1017.9mb 39f 41f
3:48 5 6 mph 1018.1mb 39f 41f
3:42 6 7 mph 1018.3mb 39f 41f
3:36 7
mph
1018.4mb 39f 41f
3:30 5 7 mph 1018.5mb 39f 42f
3:24 6 8 mph 1018.5mb 39f 41f
3:18 8 9 mph 1018.7mb 39f 41f
3:12 7 9 mph 1018.7mb 39f 41f
3:06 7 9 mph 1018.7mb 39f 41f
3:00 5 6 mph 1018.7mb 39f 42f
2:54 5 7 mph 1018.7mb 39f 42f
2:48 5 7 mph 1018.9mb 39f 42f
2:42 6 7 mph 1018.9mb 39f 42f
2:36 6 8 mph 1019mb 39f 42f
2:30 6 7 mph 1018.9mb 39f 42f
2:24 7 8 mph 1019.2mb 39f 42f
2:18 8 9 mph 1019.4mb 39f 42f
2:12 6 8 mph 1019.4mb 39f 42f
2:06 7 10 mph 1019.3mb 39f 42f
2:00 9 13 mph 1019.5mb 39f 42f
1:54 7 11 mph 1019.6mb 39f 42f
1:48 9 11 mph 1019.6mb 39f 41f
1:42 10 11 mph 1019.7mb 39f 41f
1:36 7 10 mph 1019.7mb 38f 42f
1:30 8 10 mph 1019.9mb 38f 42f
1:24 8 11 mph 1020mb 38f 41f
1:18 9 11 mph 1020.2mb 38f 42f
1:12 6 8 mph 1020.1mb 38f 42f
1:06 3 5 mph 1020mb 38f 42f
1:00 2 3 mph 1020mb 38f 42f
12:54 2 5 mph 1020.1mb 38f 42f
12:48 5
mph
1020.1mb 38f 42f
12:42 3 5 mph 1020.2mb 38f 42f
12:36 3
mph
1020.2mb 38f 42f
12:30 2 3 mph 1020mb 38f 41f
12:24 3
mph
1019.8mb 38f 41f
12:18 2 3 mph 1019.6mb 38f 40f
12:12 1 2 mph 1019.5mb 38f 40f
12:06 2 3 mph 1019.5mb 38f 40f
12:00 3
mph
1019.3mb 38f 39f
11:54 2
mph
1019.4mb 38f 39f
11:48 1 2 mph 1019.4mb 38f 38f
11:42 1 2 mph 1019.4mb 38f 38f
11:36 1 2 mph 1019.3mb 38f 38f
11:30 2
mph
1019.6mb 38f 38f
11:24  -  2 mph 1019.6mb 38f 38f
11:18 1 2 mph 1020mb 38f 38f
11:12 2 5 mph 1020.1mb 38f 37f
11:06 5 6 mph 1020.4mb 38f 38f
11:00 6 8 mph 1020.5mb 38f 37f
10:54 5 7 mph 1020.5mb 38f 37f
10:48 6 7 mph 1020.7mb 38f 37f
10:42 3 5 mph 1020.5mb 38f 36f
10:36 2 3 mph 1020.6mb 38f 36f
10:30 2 3 mph 1020.7mb 38f 36f
10:24 3
mph
1020.9mb 38f 36f
10:18 1
mph
1020.9mb 38f 36f
10:12  -  2 mph 1021mb 38f 36f
10:06 1 2 mph 1020.9mb 38f 36f
10:00 1 2 mph 1020.9mb 38f 35f
9:54 2 3 mph 1021.1mb 38f 34f
9:48 2 3 mph 1021mb 38f 34f
9:42 2 3 mph 1021.1mb 38f 34f
9:36 2 3 mph 1021.3mb 38f 34f
9:30 3
mph
1021.5mb 38f 34f
9:24 2 3 mph 1021.5mb 38f 34f
9:18 1 2 mph 1021.6mb 38f 35f
9:12 1 3 mph 1021.3mb 38f 35f
9:06 2 3 mph 1021.2mb 38f 34f
9:00  -  2 mph 1021mb 38f 35f
8:54 2 3 mph 1021.2mb 38f 34f
8:48 3 6 mph 1021.2mb 38f 34f
8:42 5 8 mph 1021.3mb 38f 33f
8:36 6 7 mph 1021.4mb 38f 33f
8:30 3 5 mph 1021.4mb 38f 33f
8:24 3 6 mph 1021.2mb 38f 33f
8:18 3 5 mph 1021.3mb 38f 33f
8:12 2 3 mph 1021.1mb 39f 33f
8:06 2 5 mph 1020.9mb 39f 32f
8:00 3
mph
1021.2mb 39f 32f
7:54  -  3 mph 1021.2mb 39f 33f
7:48 2 3 mph 1021.5mb 39f 32f
7:42 1 2 mph 1021.4mb 39f 32f
7:36 1 5 mph 1021.6mb 39f 31f
7:30 2 3 mph 1021.6mb 39f 31f
7:24 2
mph
1021.6mb 39f 31f
7:18  -  1 mph 1021.5mb 39f 29f
7:12  -  3 mph 1021.4mb 39f 30f
7:06 2 5 mph 1021.4mb 39f 29f
7:00 2 3 mph 1021.2mb 39f 29f
6:54  -  2 mph 1021.1mb 39f 29f
6:48 1 3 mph 1021.1mb 39f 29f
6:42 2 3 mph 1021mb 39f 29f
6:36 2 3 mph 1021mb 39f 29f
6:30  -  2 mph 1020.9mb 39f 29f
6:24  -  2 mph 1021mb 39f 29f
6:18 2 3 mph 1020.9mb 39f 29f
6:12 2 3 mph 1020.8mb 39f 29f
6:06 2 3 mph 1020.7mb 39f 29f
6:00 2 3 mph 1020.8mb 39f 29f
5:54 3
mph
1020.8mb 39f 29f
5:48  -  2 mph 1020.8mb 39f 30f
5:42 1 3 mph 1020.7mb 39f 30f
5:36 2 5 mph 1020.8mb 39f 30f
5:30 3 6 mph 1020.9mb 38f 30f
5:24 5 7 mph 1021mb 38f 30f
5:18 2 5 mph 1021mb 38f 29f
5:12 2
mph
1021mb 38f 29f
5:06 2 3 mph 1021.1mb 38f 29f
5:00 3 5 mph 1021.2mb 38f 29f
4:54 3 5 mph 1021.2mb 38f 29f
4:48  -  mph - 38f 29f
4:42  -  mph - 38f 29f
4:36  -  mph - 38f 29f
4:30 3
mph
1021.5mb 38f 29f
4:24 3 5 mph 1021.5mb 38f 29f
4:18 3 5 mph 1021.5mb 38f 29f
4:12 5 6 mph 1021.6mb 38f 29f
4:06 5 6 mph 1021.6mb 38f 29f
4:00 3 5 mph 1021.7mb 38f 29f
3:54 5
mph
1021.7mb 38f 29f
3:48 3 5 mph 1021.7mb 39f 29f
3:42 2
mph
1021.8mb 39f 29f
3:36 3 5 mph 1021.8mb 39f 29f
3:30 3 6 mph 1021.8mb 39f 29f
3:24 5 6 mph 1021.9mb 39f 29f
3:18 5
mph
1021.8mb 39f 30f
3:12 3 5 mph 1021.8mb 39f 30f
3:06 3 5 mph 1021.6mb 39f 30f
3:00 3 5 mph 1021.6mb 39f 30f
2:54 3
mph
1021.6mb 39f 30f
2:48 3
mph
1021.5mb 39f 30f
2:42 2 3 mph 1021.6mb 39f 30f
2:36 5
mph
1021.7mb 39f 30f
2:30 3
mph
1021.8mb 39f 30f
2:24 3 5 mph 1021.8mb 39f 30f
2:18 3 5 mph 1021.9mb 39f 30f
2:12 3 5 mph 1022mb 39f 30f
2:06 3 6 mph 1021.9mb 39f 30f
2:00 5 6 mph 1021.9mb 39f 30f
1:54 5 6 mph 1022mb 39f 29f
1:48 3 5 mph 1022mb - -
1:42 3 5 mph 1022.1mb - -
1:36 3 6 mph 1022.2mb - -
1:30 5 6 mph 1022.4mb 38f 30f
1:24 5 6 mph 1022.5mb 38f 30f
1:18 3 5 mph 1022.6mb 38f 30f
1:12 3 5 mph 1022.7mb 38f 30f
1:06 3
mph
1022.7mb 38f 30f
1:00 3
mph
1022.7mb 38f 30f
12:54 3
mph
1022.7mb 38f 30f
12:48 3
mph
1022.8mb 38f 30f
12:42 2 3 mph 1022.9mb 38f 31f
12:36 2 3 mph 1022.9mb 38f 31f
12:30 3 5 mph 1023mb 38f 31f
12:24 5 6 mph 1023.1mb 38f 31f
12:18 3 5 mph 1023.2mb 38f 31f
12:12 2 3 mph 1023.3mb 38f 31f
12:06 2 3 mph 1023.4mb 38f 31f
12:00 2 3 mph 1023.4mb 38f 31f
sam. 02/06 11:54 2 5 mph 1023.4mb 38f 31f
11:48 3 5 mph 1023.5mb 38f 31f
11:42 1 5 mph 1023.6mb 38f 31f
11:36 3 5 mph 1023.7mb 38f 31f
11:30 2 3 mph 1023.7mb 38f 31f
11:24 2 3 mph 1023.7mb 38f 31f
11:18 3 5 mph 1023.9mb 38f 31f
11:12 3 5 mph 1023.9mb 38f 31f
11:06 3 5 mph 1023.9mb 38f 32f
11:00 5 6 mph 1023.9mb 38f 32f
10:54 3 7 mph 1023.9mb 38f 32f
10:48 3 8 mph 1023.9mb 38f 32f
10:42 5 9 mph 1023.9mb 38f 33f
10:36 5 6 mph 1023.9mb 38f 33f
10:30 5 8 mph 1024mb 38f 32f
10:24 2 7 mph 1024mb 38f 32f
10:18 3 8 mph 1024mb 38f 32f
10:12 3 7 mph 1024.1mb 38f 33f
10:06 5 8 mph 1024.1mb 38f 33f
10:00 6 9 mph 1024.1mb 38f 33f
9:54 6 9 mph 1024.2mb 38f 33f
9:48 5 7 mph 1024.3mb 38f 33f
9:42 5 9 mph 1024.3mb 38f 33f
9:36 5 9 mph 1024.3mb 38f 33f
9:30 5 13 mph 1024.3mb 38f 33f
9:24 7 10 mph 1024.4mb 38f 33f
9:18 6 8 mph 1024.3mb 38f 33f
9:12 6 9 mph 1024.4mb 38f 33f
9:06 6 9 mph 1024.4mb 38f 33f
9:00 3 7 mph 1024.5mb 38f 32f
8:54 5 6 mph 1024.5mb 38f 32f
8:48  -  mph 1024.6mb 38f 32f
8:42  -  mph 1024.6mb 38f 32f
8:36  -  mph 1024.6mb 38f 33f
8:30 6 7 mph 1024.7mb 38f 33f
8:24 6 8 mph 1024.7mb 38f 33f
8:18 5 8 mph 1024.7mb 38f 33f
8:12 3 7 mph 1024.7mb 38f 32f
8:06 2 8 mph 1024.8mb 38f 32f
8:00 3 7 mph 1024.8mb 38f 32f
7:54 5 7 mph 1024.8mb 38f 33f
7:48 3 7 mph 1024.8mb 38f 33f
7:42 5 8 mph 1024.7mb 38f 32f
7:36 3 6 mph 1024.7mb 38f 32f
7:30 6 7 mph 1024.9mb 38f 32f
7:24 2 3 mph 1024.9mb 38f 32f
7:18 3 5 mph 1024.9mb 38f 32f
7:12 5 6 mph 1024.9mb 39f 33f
7:06 3 6 mph 1024.9mb 39f 33f
7:00 5
mph
1024.9mb 39f 33f
6:54 3 5 mph 1024.9mb 39f 33f
6:48 5 8 mph 1024.9mb 39f -
6:42 3 8 mph 1024.9mb 39f -
6:36 5 7 mph 1024.9mb 39f -
6:30 5 8 mph 1025mb 39f 33f
6:24 5 9 mph 1025.1mb 39f 33f
6:18 7 9 mph 1025mb 39f 33f
6:12 8 10 mph 1025.1mb 39f 33f
6:06 6 8 mph 1024.9mb 39f 33f
6:00 6 9 mph 1024.9mb 39f 33f
5:54 6 9 mph 1024.9mb 39f 33f
5:48 8 11 mph 1024.8mb 39f 34f
5:42 7 13 mph 1024.8mb 39f 34f
5:36 8 13 mph 1024.8mb 39f 34f
5:30 7 9 mph 1024.8mb 39f 34f
5:24 7 9 mph 1024.8mb 39f 34f
5:18 9 13 mph 1024.8mb 39f 34f
5:12 9 13 mph 1024.9mb 39f 34f
5:06 9 13 mph 1024.9mb 38f 34f
5:00  -  mph 1024.9mb 38f 34f
4:54  -  mph 1025mb 38f 35f
4:48 10 14 mph 1024.9mb 38f 35f
4:42 9 14 mph 1024.9mb 38f 35f
4:36 13 15 mph 1024.9mb 38f 35f
4:30 13 17 mph 1024.9mb 38f 35f
4:24 8 14 mph 1024.9mb 38f 35f
4:18 9 14 mph 1024.9mb 38f 35f
4:12 9 17 mph 1025mb 38f 35f
4:06 8 13 mph 1024.9mb 38f 35f
4:00 10 17 mph 1024.9mb 38f 36f
3:54 11 17 mph 1025.1mb 38f 36f
3:48 8 15 mph 1025mb 38f 36f
3:42 11 18 mph 1025mb 38f 36f
3:36 13 16 mph 1025.1mb 38f 36f
3:30 10 15 mph 1025mb 38f 36f
3:24 11 15 mph 1025.2mb 39f 36f
3:18 6 14 mph 1025.2mb 39f 36f
3:12 9 13 mph 1025.1mb 39f 36f
3:06 9 14 mph 1025.1mb 39f 36f
3:00 6 14 mph 1025.3mb 39f 37f
2:54 9 15 mph 1025.4mb 39f 37f
2:48 10 15 mph 1025.4mb 39f 36f
2:42 11 15 mph 1025.5mb 39f 36f
2:36 10 15 mph 1025.5mb 39f 36f
2:30 9 13 mph 1025.5mb 38f 36f
2:24 6 10 mph 1025.5mb 38f 36f
2:18 8 15 mph 1025.7mb 38f 36f
2:12 9 15 mph 1025.7mb 38f 36f
2:06 9 15 mph 1025.8mb 38f 35f
2:00 11 14 mph 1025.8mb 38f 35f
1:54 7 13 mph 1025.7mb 38f 36f
1:48 11 15 mph 1025.8mb 38f 36f
1:42 11 15 mph 1025.8mb 38f 35f
1:36 10 14 mph 1025.9mb 38f 35f
1:30 9 13 mph 1026mb 38f 36f
1:24 10 14 mph 1026.1mb 38f 36f
1:18 8 11 mph 1026.1mb 38f 36f
1:12 8 16 mph 1026.1mb 38f 35f
1:06 6 14 mph 1026.2mb 38f 35f
1:00 8 11 mph 1026.3mb 38f 35f
12:54 6 13 mph 1026.3mb 38f 36f
12:48 10 14 mph 1026.4mb 37f 35f
12:42 8 13 mph 1026.3mb 37f 35f
12:36 10 14 mph 1026.4mb 37f 35f
12:30 6 11 mph 1026.5mb 37f 36f
12:24 9 13 mph 1026.6mb 37f 35f
12:18 9 14 mph 1026.8mb 37f 35f
12:12 7 11 mph 1026.8mb 37f 35f
12:06 8 10 mph 1027mb 37f 35f
12:00 6 10 mph 1027.1mb 37f 35f
11:54 7 8 mph 1027.3mb 37f 35f
11:48 6 9 mph 1027.4mb 37f 35f
11:42 8 11 mph 1027.5mb 37f 35f
11:36 7 10 mph 1027.7mb 37f 35f
11:30 9 10 mph 1027.9mb 37f 34f
11:24 7 9 mph 1027.8mb 37f 35f
11:18 5 10 mph 1028mb 37f 35f
11:12 8 11 mph 1028.1mb 37f 34f
11:06 5 7 mph 1028.3mb 37f 34f
11:00 6 8 mph 1028.4mb 37f 34f
10:54 7 8 mph 1028.4mb 37f 34f
10:48 7 8 mph 1028.5mb 37f 33f
10:42 3 7 mph 1028.5mb 37f 33f
10:36 5 6 mph 1028.6mb 37f 33f
10:30 3 5 mph 1028.7mb 37f 33f
10:24 3 8 mph 1028.6mb 37f 33f
10:18 6 7 mph 1028.8mb 38f 33f
10:12 1 5 mph 1028.9mb 38f 33f
10:06 2 3 mph 1028.8mb 38f 33f
10:00 2 5 mph 1028.7mb 38f 32f
9:54 2 5 mph 1028.7mb 38f 33f
9:48 2 3 mph 1028.6mb 38f 32f
9:42 2 3 mph 1028.7mb 38f 31f
9:36 2 5 mph 1028.7mb 38f 30f
9:30 2 5 mph 1028.6mb 38f 30f
9:24 3 6 mph 1028.6mb 38f 29f
9:18 3 6 mph 1028.6mb 38f 29f
9:12 3 7 mph 1028.5mb 38f 29f
9:06 2 6 mph 1028.5mb 38f 29f
9:00 3 6 mph 1028.5mb 38f 28f
8:54 3 6 mph 1028.4mb 38f 28f
8:48 5 6 mph 1028.4mb 38f 28f
8:42 3 6 mph 1028.3mb 38f 29f
8:36 5 7 mph 1028.4mb 38f 28f
8:30 6
mph
1028.4mb 38f 29f
8:24 2 5 mph 1028.5mb 38f 28f
8:18  -  3 mph 1028.5mb 38f 26f
8:12 1 2 mph 1028.4mb 38f 26f
8:06 1 2 mph 1028.4mb 38f 27f
8:00  -  2 mph 1028.3mb 38f 26f
7:54 1 2 mph 1028.2mb 38f 25f
7:48 1 2 mph 1028.2mb 38f 24f
7:42 1 2 mph 1028.1mb 39f 24f
7:36 2 5 mph 1028.1mb 39f 23f
7:30 3 6 mph 1028.1mb 39f 23f
7:24 5 6 mph 1028mb 39f 23f
7:18 5 7 mph 1028mb 39f 22f
7:12 5 6 mph 1028mb 39f 22f
7:06 2 6 mph 1027.9mb 39f 22f
7:00 5 6 mph 1027.8mb 39f 21f
6:54 6 7 mph 1028mb 39f 21f
6:48 3 6 mph 1027.9mb 39f 21f
6:42 5 6 mph 1027.8mb 39f 21f
6:36 3 7 mph 1027.7mb 39f 21f
6:30 3 5 mph 1027.6mb 39f 21f
6:24 3
mph
1027.5mb 39f 21f
6:18 1 3 mph 1027.3mb 40f 22f
6:12 2 6 mph 1027.1mb 40f 21f
6:06 5
mph
1027mb 40f 22f
6:00 5 8 mph 1027mb 40f 22f
5:54 6 7 mph 1026.9mb 40f 22f
5:48 6 7 mph 1027mb 40f 22f
5:42 3 6 mph 1026.9mb 40f 22f
5:36 5 6 mph 1026.8mb 39f 22f
5:30 2 5 mph 1026.8mb 39f 22f
5:24 3 5 mph 1026.8mb 39f 22f
5:18 3
mph
1026.9mb 39f 22f
5:12 3 5 mph 1026.8mb 39f 22f
5:06 2 3 mph 1026.7mb 39f 21f
5:00 2 3 mph 1026.7mb 39f 22f
4:54 1 3 mph 1026.8mb 39f 22f
4:48  -  mph - 39f 22f
4:42  -  mph - 39f 22f
4:36  -  mph - 39f 22f
4:30 3
mph
1026.7mb 39f 22f
4:24 2 3 mph 1026.6mb 39f 22f
4:18 2 3 mph 1026.5mb 39f 22f
4:12 2 6 mph 1026.4mb 39f 23f
4:06 5 6 mph 1026.3mb 39f 23f
4:00 5 6 mph 1026.2mb 39f 23f
3:54 5 7 mph 1026.3mb 39f 23f
3:48 5 8 mph 1026.3mb 39f 23f
3:42 6 8 mph 1026.1mb 39f 23f
3:36 7 8 mph 1026.1mb 39f 23f
3:30 3
mph
1026.1mb 39f 23f
3:24 3 5 mph 1026mb 39f 23f
3:18 1 3 mph 1025.9mb 40f 23f
3:12 3 5 mph 1025.9mb 40f 23f
3:06 5 6 mph 1026mb 40f 23f
3:00 3 5 mph 1025.9mb 40f 23f
2:54 2 3 mph 1025.9mb 40f 23f
2:48 3
mph
1025.8mb 40f 24f
2:42 2 6 mph 1025.9mb 40f 24f
2:36 5 8 mph 1025.7mb 40f 24f
2:30 7 8 mph 1025.6mb 39f 24f
2:24 7 8 mph 1025.5mb 39f 24f
2:18 7 9 mph 1025.4mb 39f 24f
2:12 5 8 mph 1025.3mb 39f 24f
2:06 5 7 mph 1025.3mb 39f 24f
2:00 6 9 mph 1025.1mb 39f 25f
1:54 6 10 mph 1025mb 39f 25f
1:48 8 11 mph 1024.9mb 39f 25f
1:42 9 13 mph 1024.8mb 39f 25f
1:36 8 10 mph 1024.6mb 39f 25f
1:30 6 8 mph 1024.5mb 39f 25f
1:24 6 9 mph 1024.4mb 39f 25f
1:18 5 7 mph 1024.3mb 39f 25f
1:12 6 9 mph 1024.2mb 39f 25f
1:06 8 10 mph 1024.1mb 39f 25f
1:00 8 10 mph 1024.1mb 39f 25f
12:54 5 9 mph 1024.1mb 39f 25f
12:48 8 10 mph 1024mb 39f 25f
12:42 6 9 mph 1024mb 38f 26f
12:36 6 8 mph 1024.1mb 38f 26f
12:30 5 8 mph 1024.1mb 38f 26f
12:24 6 8 mph 1024.1mb 38f 26f
12:18 5 10 mph 1024.1mb 38f 26f
12:12 5 7 mph 1024.1mb 38f 26f
12:06 3 11 mph 1024mb 38f 26f
12:00 8 11 mph 1023.9mb 38f 26f
ven. 02/05 11:54 3 7 mph 1023.8mb 38f 26f
11:48 6 11 mph 1023.6mb 38f 26f
11:42 6 11 mph 1023.6mb 38f 26f
11:36 8 10 mph 1023.7mb 38f 26f
11:30 6 11 mph 1023.7mb 38f 26f
11:24 7 11 mph 1023.7mb 38f 26f
11:18 9 11 mph 1023.6mb 38f 26f
11:12 7 15 mph 1023.6mb 38f 26f
11:06 8 15 mph 1023.6mb 38f 27f
11:00 10 18 mph 1023.4mb 38f 27f
10:54 11 16 mph 1023.1mb 38f 27f
10:48 11 16 mph 1022.9mb 38f 27f
10:42 11 18 mph 1022.8mb 38f 27f
10:36 15 20 mph 1022.7mb 38f 27f
10:30 13 17 mph 1022.6mb 38f 27f
10:24 11 16 mph 1022.6mb 38f 28f
10:18 10 16 mph 1022.4mb 38f 27f
10:12 10 20 mph 1022.3mb 38f 28f
10:06 14 18 mph 1022.3mb 38f 28f
10:00 14 20 mph 1022.2mb 38f 28f
9:54 11 18 mph 1022mb 38f 28f
9:48 14 20 mph 1021.9mb 38f 28f
9:42 10 18 mph 1021.9mb 38f 28f
9:36 13 17 mph 1021.9mb 38f 28f
9:30 9 14 mph 1021.7mb 38f 28f
9:24 11 15 mph 1021.7mb 38f 28f
9:18 10 18 mph 1021.8mb 38f 28f
9:12 13 18 mph 1021.7mb 38f 28f
9:06 13 16 mph 1021.7mb 38f 28f